GFSFLT2_700_spd_162.txt.gz
Wind_Speed
15 16 20 21 12 10 9 5 5 5 7 7 13 11 10 11 16 17 17 17 21 22 20 21 17 17 18 26 16 5 4 11
8 13 22 20 13 7 6 1 1 5 4 7 15 13 15 17 17 18 16 17 11 11 14 21 14 13 14 29 22 15 9 10
17 9 24 20 17 17 13 5 7 4 9 20 18 15 12 17 18 15 12 11 8 10 11 16 11 11 12 20 28 21 22 20
23 17 13 17 20 17 19 6 4 7 9 17 13 20 16 22 23 23 16 9 10 6 8 13 16 15 18 21 27 24 28 25
20 18 21 11 11 11 8 5 5 4 3 21 18 17 19 22 23 16 9 11 8 7 8 7 13 17 17 18 20 24 36 33
19 14 6 14 17 17 7 3 2 4 13 20 18 19 23 22 17 13 11 7 7 7 8 8 8 10 12 16 16 16 5 35
15 8 7 13 14 9 14 8 5 1 18 20 18 22 24 22 18 15 12 4 7 4 3 6 7 5 4 6 10 13 17 18
13 11 10 13 11 11 14 10 13 12 5 23 21 21 23 24 18 11 8 6 12 8 5 3 2 2 5 8 6 5 8 14
8 12 6 17 16 12 15 18 22 18 9 12 25 30 30 27 24 15 12 7 12 11 7 3 6 7 6 4 8 7 6 10
6 10 3 6 13 16 19 23 19 21 21 22 29 31 29 19 21 21 17 11 13 11 7 2 5 11 11 6 8 9 6 4
5 10 10 10 8 13 17 16 14 20 29 13 28 27 24 26 26 22 16 11 13 10 6 2 5 9 13 8 8 10 10 6
19 6 6 13 15 16 13 13 11 20 10 20 31 34 32 30 29 23 17 10 14 13 8 5 7 11 12 7 8 11 13 12
35 19 9 7 20 21 16 8 21 20 4 17 35 25 23 31 30 23 12 13 15 13 9 8 9 12 13 8 8 9 13 16
13 25 14 26 18 19 20 11 17 27 15 11 30 32 29 28 29 25 17 15 13 14 11 10 12 12 11 9 9 9 10 16
10 9 12 20 24 20 16 22 22 30 26 19 18 39 29 26 29 24 19 13 16 12 10 9 10 10 10 10 8 9 8 11
14 16 17 16 12 14 14 18 24 25 33 27 13 32 29 25 25 22 20 17 14 12 11 7 7 7 9 12 11 11 11 10
16 14 19 25 25 23 16 26 26 20 15 18 21 25 32 27 21 18 19 16 14 11 9 9 10 9 9 11 13 12 13 13
17 14 13 8 16 19 24 25 29 27 17 16 21 38 34 25 18 16 12 13 10 9 9 11 14 15 10 9 10 11 13 14
18 17 18 20 14 20 21 9 10 20 32 22 24 21 40 20 17 14 10 10 12 12 12 14 17 19 15 8 10 11 11 12

GFSFLT2_700_spd_165.txt.gz
Wind_Speed
18 17 16 17 15 11 7 2 2 3 11 18 12 8 7 5 2 9 15 16 15 14 12 14 17 16 19 16 14 14 12 12
13 14 19 26 20 9 6 2 3 5 9 13 12 9 5 6 9 9 10 12 11 9 15 21 13 16 20 19 24 19 16 14
14 10 12 18 21 19 11 6 7 3 8 12 15 11 6 7 7 9 9 11 8 10 11 17 18 20 24 21 21 27 24 19
31 17 13 16 22 21 18 7 6 3 8 13 17 18 15 12 12 13 12 10 8 10 11 17 18 18 16 17 23 28 31 24
33 27 12 15 14 23 17 8 11 6 7 14 14 20 21 17 17 21 15 14 11 11 9 13 16 20 21 23 21 26 35 29
26 20 13 17 18 19 19 8 6 10 11 10 14 17 23 21 20 19 14 12 10 10 10 13 12 9 10 15 17 19 24 27
18 18 20 14 15 15 18 20 14 10 8 6 12 11 15 16 16 18 10 9 7 10 9 8 7 6 7 8 16 20 22 24
13 15 16 17 18 13 11 15 11 8 10 10 14 17 16 17 19 16 8 8 10 10 8 4 2 2 4 7 11 12 13 19
10 17 19 19 21 19 17 14 13 12 11 11 19 19 22 23 21 15 10 10 14 12 10 8 3 2 4 7 10 12 12 14
6 6 5 15 20 22 23 22 22 19 12 18 15 15 28 30 24 18 16 13 12 14 10 7 3 4 7 8 10 12 13 13
7 16 14 9 18 26 26 25 24 20 20 21 23 23 29 35 30 18 14 11 11 15 12 9 6 4 8 12 11 12 13 13
15 6 6 9 19 11 21 21 19 20 19 27 33 26 21 32 30 26 22 19 14 18 14 12 12 11 13 16 15 13 14 15
21 18 22 18 8 17 21 14 22 17 19 18 20 34 26 30 29 26 21 21 18 19 16 14 15 16 17 19 16 15 15 16
22 20 13 21 27 22 17 11 9 18 24 14 4 23 29 32 31 27 27 24 18 17 19 17 16 17 20 19 17 16 16 17
11 15 11 20 32 28 24 18 19 19 20 18 6 11 26 33 36 30 29 24 20 18 19 17 18 19 21 18 17 17 16 16
14 17 11 14 22 30 38 32 29 28 28 32 25 14 23 32 36 34 30 26 21 18 17 18 19 17 17 18 16 16 17 16
12 12 12 11 17 12 18 21 22 25 25 25 26 26 21 35 39 32 28 29 24 16 16 16 15 13 14 17 17 16 17 17
8 9 11 11 10 23 29 24 23 21 15 11 24 22 27 32 36 37 32 27 22 17 14 12 12 14 13 16 16 16 15 16
11 15 16 16 17 19 21 22 26 31 35 24 9 17 23 38 41 37 27 15 12 11 10 10 14 15 15 16 17 18 18 18

GFSFLT2_700_spd_168.txt.gz
Wind_Speed
15 17 17 12 14 14 6 5 1 3 9 17 14 3 3 4 2 6 12 15 17 14 15 15 14 12 15 14 17 16 15 15
9 13 14 19 17 9 9 4 3 4 8 15 15 3 4 4 7 5 9 13 13 15 14 14 15 13 17 21 20 15 16 18
26 19 17 15 16 15 12 5 6 2 6 16 11 7 4 5 3 6 8 10 9 9 8 9 14 17 15 17 19 23 19 17
31 27 28 20 19 19 14 10 8 3 7 9 7 10 13 8 6 6 8 10 11 11 15 16 15 17 18 19 18 18 21 27
20 27 27 22 20 19 20 16 15 5 6 10 8 8 14 15 10 9 10 7 9 9 12 14 15 17 18 17 17 21 25 26
20 24 24 15 21 22 19 18 16 18 14 13 12 8 12 14 15 12 10 11 12 9 7 8 11 14 18 20 20 24 23 23
22 21 22 22 22 24 25 23 20 21 17 9 12 12 9 11 14 14 11 8 9 7 7 9 10 11 11 12 13 18 22 24
22 23 22 27 26 23 23 21 19 17 19 16 15 17 15 17 15 16 13 8 8 7 8 9 8 7 7 7 11 10 16 20
20 21 21 22 22 24 23 22 19 18 16 18 15 19 18 17 16 13 13 9 6 9 10 11 8 4 4 6 9 11 14 16
11 18 9 21 23 23 24 23 23 20 15 15 12 14 19 21 17 13 15 13 10 9 10 11 8 4 4 7 9 10 13 16
14 16 18 18 21 21 30 27 25 20 17 16 19 23 19 18 19 21 16 9 10 9 11 13 9 6 7 11 13 15 13 16
22 9 8 25 23 15 19 23 18 19 21 19 22 28 29 24 22 25 25 16 13 9 14 16 11 9 11 13 16 17 15 16
24 16 21 16 16 25 26 20 20 19 17 20 21 24 24 31 27 23 26 21 20 17 15 18 15 13 14 15 18 21 17 15
12 22 13 17 21 22 15 22 24 20 14 20 20 20 25 24 23 29 27 25 24 20 19 20 18 17 17 18 21 20 18 17
10 9 11 19 21 29 32 26 24 22 14 15 19 15 8 21 24 25 28 29 24 22 19 17 20 20 20 22 23 21 19 17
24 16 20 16 13 18 25 32 32 28 20 23 19 20 15 14 20 24 32 31 29 25 20 18 19 19 20 23 22 21 18 16
24 16 6 10 15 19 12 18 24 30 34 29 23 26 24 22 19 37 36 36 33 24 20 18 18 18 20 19 19 20 17 16
23 2 8 9 15 12 23 19 16 20 23 23 24 24 21 27 26 21 38 42 33 28 18 15 15 17 16 16 16 18 16 14
22 9 17 15 13 16 19 20 27 27 24 21 20 20 23 22 29 26 35 40 37 27 13 7 13 14 14 13 14 16 15 16

GFSFLT2_700_spd_171.txt.gz
Wind_Speed
8 26 27 18 16 11 7 7 4 5 11 16 17 3 5 1 3 5 16 23 21 23 21 18 18 17 18 18 16 16 14 15
4 8 15 19 17 7 8 4 7 5 9 16 15 1 3 1 7 3 10 20 21 20 19 20 19 18 19 20 18 17 19 18
15 14 15 17 15 11 11 8 8 6 7 13 11 6 4 3 4 8 8 11 14 16 16 17 18 20 15 20 20 21 19 20
22 21 17 18 16 15 11 7 8 6 11 8 9 10 7 7 4 3 6 9 11 14 15 15 15 17 20 17 18 16 22 23
12 15 19 20 22 21 21 20 15 10 11 12 8 8 8 10 9 7 8 6 7 9 10 15 16 18 19 20 22 18 21 23
21 20 15 14 17 20 21 14 16 19 18 17 14 13 11 9 11 12 8 7 11 12 12 14 16 17 18 18 20 18 19 24
29 27 28 27 24 23 27 23 20 20 24 20 13 12 13 12 13 14 12 9 9 9 10 10 11 12 12 14 17 19 21 22
27 28 29 30 29 26 25 25 27 24 22 16 16 14 16 18 17 15 13 12 11 8 8 10 10 10 9 9 11 13 13 17
20 20 26 22 30 30 31 33 30 27 23 18 15 13 16 21 19 17 16 15 11 8 8 9 7 7 5 2 3 6 8 12
16 17 17 25 20 28 29 29 28 25 19 16 13 10 13 18 21 19 18 17 12 7 4 10 9 8 4 1 3 7 8 9
18 19 19 15 16 25 24 24 26 24 23 19 19 17 18 15 14 22 16 14 14 10 6 12 12 9 6 4 4 8 12 12
17 15 19 22 21 15 14 19 24 32 26 24 21 21 20 21 21 19 22 17 17 13 6 11 13 11 9 7 8 11 14 14
25 20 19 21 16 19 18 18 18 16 29 29 24 21 23 24 26 27 24 25 23 18 12 8 12 14 12 11 10 14 17 15
11 10 16 16 21 21 17 14 23 23 18 22 24 24 23 24 22 22 26 30 31 25 17 14 12 15 16 15 14 16 18 18
10 10 10 12 21 25 29 29 20 17 22 22 24 24 24 21 26 25 26 35 36 28 25 19 14 15 19 18 17 19 19 17
18 17 18 23 24 25 23 31 29 28 24 22 20 19 24 20 15 15 22 38 36 29 27 21 15 14 18 19 19 20 18 16
25 22 23 18 22 27 20 17 17 21 29 24 23 24 21 23 21 12 20 37 36 33 28 23 19 15 17 18 19 19 18 16
24 25 23 26 13 17 19 20 23 17 16 28 21 22 24 26 25 21 20 33 38 36 32 28 21 15 15 14 16 16 16 14
22 17 20 9 3 3 14 13 16 19 22 24 17 20 22 24 22 21 26 25 34 40 41 33 21 14 16 11 10 13 15 14